Amarillo, TX

3:47 PM CST on December 16, 2017 (GMT -0600)
Amarillo International

Weather History for KAMA - November, 2012

Change the Weather History Date:

Monday, November 26, 2012

  Actual Average Record
Temperature  
Mean Temperature 37 °F 42 °F  
Max Temperature 48 °F 55 °F 80 °F (1995)
Min Temperature 25 °F 28 °F 3 °F (1980)
Degree Days  
Heating Degree Days 28 24  
Month to date heating degree days 303 466  
Since 1 July heating degree days 574 746  
Cooling Degree Days 0 0  
Month to date cooling degree days 4 0  
Year to date cooling degree days 2011 1398  
Moisture  
Dew Point 22 °F    
Average Humidity 58    
Maximum Humidity 75    
Minimum Humidity 41    
Precipitation  
Precipitation 0.00 in 0.02 in 0.59 in (2015)
Month to date precipitation 0.01 0.73  
Year to date precipitation 11.79 19.58  
Snow  
Snow 0.00 in 0.10 in 7.00 in (1931)
Month to date snowfall 0.0 2.1  
Since 1 July snowfall T 2.3  
Since 1 September snowfall T 2.3  
Snow Depth 0.00 in    
Sea Level Pressure  
Sea Level Pressure 30.17 in    
Wind  
Wind Speed 13 mph (North)    
Max Wind Speed 28 mph    
Max Gust Speed 35 mph    
Visibility 10 miles    
Events      
T = Trace of Precipitation, MM = Missing Value Source: NWS Daily Summary

Daily Weather History Graph

Daily Weather History Graph

Search for Another Location

Airport or City:

Trip Planner

Search our weather history database for the weather conditions in past years. The results will help you decide how hot, cold, wet, or windy it might be!

Date:

Astronomy

Nov. 26, 2012 Rise Set
Actual Time 7:32 AM CST 5:35 PM CST
Civil Twilight 7:05 AM CST 6:03 PM CST
Nautical Twilight 6:34 AM CST 6:34 PM CST
Astronomical Twilight 6:03 AM CST 7:04 PM CST
Moon 4:27 PM CST (11/26) 5:47 AM CST (11/26)
Length of Visible Light 10h 57m
Length of Day
10h 02m
Waxing Gibbous, 97% of the Moon is Illuminated
Nov 26
Waxing Gibbous
Nov 28
Full
Dec 6
Last Quarter
Dec 13
New
Dec 19
First Quarter

Hourly Weather History & Observations

Time (CST) Temp. Windchill Dew Point Humidity Pressure Visibility Wind Dir Wind Speed Gust Speed Precip Events Conditions
12:53 AM 37.0 °F 31.6 °F 19.0 °F 48% 29.81 in 10.0 mi SSE 6.9 mph - N/A   Clear
1:53 AM 37.9 °F 35.5 °F 19.0 °F 47% 29.81 in 10.0 mi SE 3.5 mph - N/A   Clear
2:53 AM 34.0 °F - 19.9 °F 56% 29.83 in 10.0 mi Calm Calm - N/A   Clear
3:53 AM 30.9 °F 24.3 °F 18.0 °F 59% 29.87 in 10.0 mi NNW 6.9 mph - N/A   Clear
4:53 AM 30.9 °F 22.8 °F 19.0 °F 61% 29.90 in 10.0 mi North 9.2 mph - N/A   Clear
5:53 AM 30.0 °F 23.2 °F 21.0 °F 69% 29.94 in 10.0 mi North 6.9 mph - N/A   Clear
6:53 AM 30.0 °F 21.7 °F 23.0 °F 75% 30.01 in 10.0 mi NNW 9.2 mph - N/A   Clear
7:53 AM 28.9 °F 17.3 °F 21.9 °F 75% 30.07 in 10.0 mi North 16.1 mph - N/A   Clear
8:53 AM 32.0 °F 22.5 °F 25.0 °F 75% 30.13 in 10.0 mi North 12.7 mph - N/A   Clear
9:53 AM 36.0 °F 25.6 °F 26.1 °F 67% 30.14 in 10.0 mi NNW 18.4 mph 21.9 mph N/A   Clear
10:53 AM 42.1 °F 33.3 °F 27.0 °F 55% 30.17 in 10.0 mi North 19.6 mph - N/A   Clear
11:53 AM 44.1 °F 35.7 °F 27.0 °F 51% 30.19 in 10.0 mi North 20.7 mph 26.5 mph N/A   Clear
12:53 PM 46.0 °F 37.8 °F 27.0 °F 47% 30.20 in 10.0 mi NNE 23.0 mph 28.8 mph N/A   Clear
1:53 PM 46.9 °F - 27.0 °F 46% 30.21 in 10.0 mi North 23.0 mph 29.9 mph N/A   Clear
2:53 PM 46.0 °F 37.2 °F 27.0 °F 47% 30.24 in 10.0 mi North 26.5 mph 31.1 mph N/A   Clear
3:53 PM 45.0 °F 36.0 °F 27.0 °F 49% 30.26 in 10.0 mi North 25.3 mph 31.1 mph N/A   Clear
4:53 PM 42.1 °F 32.6 °F 26.1 °F 53% 30.30 in 10.0 mi North 23.0 mph 29.9 mph N/A   Clear
5:53 PM 36.0 °F 27.1 °F 24.1 °F 62% 30.35 in 10.0 mi North 13.8 mph - N/A   Clear
6:53 PM 34.0 °F 24.6 °F 21.9 °F 61% 30.39 in 10.0 mi North 13.8 mph - N/A   Clear
7:53 PM 30.9 °F 23.5 °F 19.9 °F 64% 30.42 in 10.0 mi North 8.1 mph - N/A   Clear
8:53 PM 28.0 °F 19.3 °F 19.0 °F 69% 30.44 in 10.0 mi North 9.2 mph - N/A   Clear
9:53 PM 27.0 °F 20.5 °F 18.0 °F 69% 30.43 in 10.0 mi North 5.8 mph - N/A   Clear
10:53 PM 26.1 °F 17.6 °F 18.0 °F 71% 30.43 in 10.0 mi North 8.1 mph - N/A   Clear
11:53 PM 26.1 °F 18.4 °F 18.0 °F 71% 30.45 in 10.0 mi NNW 6.9 mph - N/A   Clear